{"data":{"norad_id":66484,"intl_designator":"2025-262AE","name":"STARLINK-35371","alt_names":[],"object_type":"PAYLOAD","status":"ACTIVE","operator":null,"country":"US","launch_date":"2025-11-15","launch_site_code":"AFETR","launch_vehicle":null,"mission":null,"orbit_class":"UNKNOWN","rcs_meters":null,"size_class":null,"mass_kg":null,"dimensions":null,"purposes":["comms"],"wikipedia_slug":null,"has_3d_model":false,"image_url":null,"decayed_at":null,"tle_current":{"epoch":"2026-09-20T02:20:16.031328Z","epoch_age_seconds":124132,"freshness":"FRESH","line1":"1 66484U 25262AE  26263.09740777  .00007785  00000+0  29207-3 0  9994","line2":"2 66484  42.9995 278.6700 0000871 258.7539 101.3215 15.27584885 48630","mean_motion":15.27584885,"eccentricity":8.71e-5,"inclination_deg":42.9995,"raan_deg":278.67,"arg_perigee_deg":258.7539,"mean_anomaly_deg":101.3215,"bstar":0.00029207,"rev_number":4863,"period_min":94.266447261947,"perigee_km":482.43686059635,"apogee_km":483.63207666618,"semimajor_km":6861.1714686313,"source":"CELESTRAK","updated_at":"2026-09-21T09:00:35.918191Z"}}}